Tiempo cada hora Dachnoe

Hoy, 22 Junio, Martes

Tiempo Temperatura Precipitaciones Viento Presión Humedad
00:00 +21°C° 0 mm 3 mps 748 mmHg 89%
01:00 +21°C° 0 mm 3 mps 748 mmHg 92%
02:00 +20°C° 0 mm 2 mps 748 mmHg 94%
03:00 +20°C° 0 mm 2 mps 748 mmHg 94%
04:00 +20°C° 0 mm 2 mps 748 mmHg 93%
05:00 +20°C° 0 mm 2 mps 749 mmHg 93%
06:00 +22°C° 0 mm 3 mps 749 mmHg 86%
07:00 +25°C° 0 mm 3 mps 749 mmHg 79%
08:00 +26°C° 0 mm 4 mps 749 mmHg 71%
09:00 +28°C° 0 mm 4 mps 749 mmHg 65%
10:00 +29°C° 0 mm 4 mps 749 mmHg 59%
11:00 +30°C° 0 mm 5 mps 749 mmHg 53%
12:00 +32°C° 0 mm 4 mps 749 mmHg 49%
13:00 +33°C° 0 mm 4 mps 749 mmHg 45%
14:00 +33°C° 0 mm 4 mps 749 mmHg 41%
15:00 +33°C° 0 mm 4 mps 749 mmHg 45%
16:00 +33°C° 0 mm 4 mps 749 mmHg 49%
17:00 +32°C° 0 mm 4 mps 749 mmHg 52%
18:00 +29°C° 0 mm 4 mps 749 mmHg 60%
19:00 +27°C° 0 mm 3 mps 749 mmHg 68%
20:00 +26°C° 0 mm 3 mps 749 mmHg 76%
21:00 +24°C° 0 mm 3 mps 749 mmHg 80%
22:00 +22°C° 0 mm 3 mps 749 mmHg 83%
23:00 +21°C° 0 mm 3 mps 749 mmHg 86%

Mañana, 23 Junio, Miércoles

Tiempo Temperatura Precipitaciones Viento Presión Humedad
00:00 +20°C° 0 mm 2 mps 750 mmHg 89%
01:00 +20°C° 0 mm 2 mps 750 mmHg 91%
02:00 +19°C° 0 mm 2 mps 750 mmHg 93%
03:00 +19°C° 0 mm 2 mps 750 mmHg 93%
04:00 +20°C° 0 mm 2 mps 750 mmHg 92%
05:00 +20°C° 0 mm 2 mps 750 mmHg 92%
06:00 +23°C° 0 mm 2 mps 750 mmHg 84%
07:00 +25°C° 0 mm 3 mps 750 mmHg 77%
08:00 +27°C° 0 mm 3 mps 750 mmHg 69%
09:00 +28°C° 0 mm 3 mps 750 mmHg 63%
10:00 +30°C° 0 mm 3 mps 751 mmHg 57%
11:00 +32°C° 0 mm 4 mps 751 mmHg 51%
12:00 +33°C° 0 mm 3 mps 751 mmHg 50%
13:00 +34°C° 0 mm 3 mps 750 mmHg 48%
14:00 +35°C° 0 mm 3 mps 750 mmHg 46%
15:00 +34°C° 0 mm 3 mps 750 mmHg 49%
16:00 +34°C° 0 mm 4 mps 750 mmHg 52%
17:00 +34°C° 0 mm 4 mps 750 mmHg 55%
18:00 +31°C° 0 mm 3 mps 750 mmHg 63%
19:00 +29°C° 0 mm 3 mps 750 mmHg 70%
20:00 +27°C° 0 mm 3 mps 750 mmHg 78%
21:00 +26°C° 0 mm 3 mps 750 mmHg 80%
22:00 +25°C° 0 mm 2 mps 750 mmHg 83%
23:00 +24°C° 0 mm 2 mps 750 mmHg 86%

Pasado mañana, 24 Junio, Jueves

Tiempo Temperatura Precipitaciones Viento Presión Humedad
00:00 +24°C° 0 mm 2 mps 751 mmHg 89%
01:00 +23°C° 0 mm 2 mps 751 mmHg 91%
02:00 +23°C° 0 mm 2 mps 751 mmHg 93%
03:00 +23°C° 0 mm 2 mps 750 mmHg 93%
04:00 +23°C° 0 mm 2 mps 750 mmHg 94%
05:00 +23°C° 0 mm 2 mps 750 mmHg 94%
06:00 +25°C° 0 mm 3 mps 750 mmHg 86%
07:00 +26°C° 0 mm 3 mps 750 mmHg 78%
08:00 +28°C° 0 mm 3 mps 751 mmHg 70%
09:00 +29°C° 0 mm 3 mps 750 mmHg 65%
10:00 +30°C° 0 mm 4 mps 750 mmHg 60%
11:00 +33°C° 0 mm 4 mps 750 mmHg 55%
12:00 +33°C° 0 mm 4 mps 750 mmHg 53%
13:00 +34°C° 0 mm 4 mps 750 mmHg 50%
14:00 +35°C° 0 mm 4 mps 750 mmHg 47%
15:00 +35°C° 0 mm 4 mps 750 mmHg 49%
16:00 +34°C° 0 mm 3 mps 749 mmHg 50%
17:00 +34°C° 0 mm 3 mps 749 mmHg 51%
18:00 +31°C° 0 mm 3 mps 749 mmHg 59%
19:00 +30°C° 0 mm 3 mps 748 mmHg 67%
20:00 +28°C° 0 mm 3 mps 748 mmHg 75%
21:00 +27°C° 0 mm 3 mps 748 mmHg 76%
22:00 +26°C° 0 mm 3 mps 748 mmHg 77%
23:00 +25°C° 0 mm 3 mps 749 mmHg 78%

25 Junio, Viernes

Tiempo Temperatura Precipitaciones Viento Presión Humedad
00:00 +25°C° 0.1 mm 2 mps 749 mmHg 82%
01:00 +24°C° 0.1 mm 2 mps 748 mmHg 86%
02:00 +23°C° 0.1 mm 2 mps 748 mmHg 91%
03:00 +23°C° 0 mm 2 mps 748 mmHg 91%
04:00 +24°C° 0 mm 2 mps 748 mmHg 91%
05:00 +24°C° 0 mm 1 mps 748 mmHg 91%
06:00 +25°C° 0 mm 2 mps 748 mmHg 85%
07:00 +27°C° 0 mm 3 mps 748 mmHg 79%
08:00 +28°C° 0 mm 3 mps 748 mmHg 73%
09:00 +29°C° 0 mm 4 mps 748 mmHg 66%
10:00 +32°C° 0 mm 4 mps 748 mmHg 60%
11:00 +33°C° 0 mm 5 mps 748 mmHg 53%
12:00 +34°C° 0 mm 5 mps 748 mmHg 49%
13:00 +34°C° 0 mm 5 mps 748 mmHg 44%
14:00 +35°C° 0 mm 5 mps 748 mmHg 40%
15:00 +34°C° 0 mm 4 mps 747 mmHg 42%
16:00 +34°C° 0 mm 4 mps 747 mmHg 44%
17:00 +34°C° 0 mm 4 mps 747 mmHg 46%
18:00 +30°C° 0 mm 3 mps 747 mmHg 54%
19:00 +28°C° 0 mm 3 mps 746 mmHg 61%
20:00 +26°C° 0 mm 3 mps 746 mmHg 69%
21:00 +26°C° 0 mm 3 mps 747 mmHg 71%
22:00 +25°C° 0 mm 2 mps 747 mmHg 73%
23:00 +24°C° 0 mm 2 mps 747 mmHg 75%

26 Junio, Sábado

Tiempo Temperatura Precipitaciones Viento Presión Humedad
00:00 +23°C° 0 mm 2 mps 747 mmHg 79%
01:00 +22°C° 0 mm 1 mps 747 mmHg 82%
02:00 +22°C° 0 mm 1 mps 747 mmHg 86%
03:00 +22°C° 0.1 mm 1 mps 747 mmHg 87%
04:00 +21°C° 0.1 mm 2 mps 747 mmHg 88%
05:00 +21°C° 0.1 mm 2 mps 747 mmHg 89%
06:00 +23°C° 0 mm 2 mps 747 mmHg 84%
07:00 +25°C° 0 mm 2 mps 747 mmHg 78%
08:00 +26°C° 0 mm 2 mps 748 mmHg 73%
09:00 +27°C° 0 mm 2 mps 748 mmHg 69%
10:00 +28°C° 0 mm 2 mps 748 mmHg 64%
11:00 +29°C° 0 mm 3 mps 748 mmHg 59%
12:00 +30°C° 0.2 mm 3 mps 748 mmHg 57%
13:00 +30°C° 0.2 mm 3 mps 748 mmHg 55%
14:00 +30°C° 0.2 mm 3 mps 748 mmHg 53%
15:00 +30°C° 0.1 mm 3 mps 748 mmHg 56%
16:00 +29°C° 0.1 mm 4 mps 748 mmHg 58%
17:00 +28°C° 0.1 mm 4 mps 747 mmHg 60%
18:00 +26°C° 0.7 mm 4 mps 748 mmHg 69%
19:00 +24°C° 0.7 mm 3 mps 748 mmHg 78%
20:00 +21°C° 0.7 mm 2 mps 748 mmHg 86%
21:00 +21°C° 0.2 mm 2 mps 748 mmHg 88%
22:00 +20°C° 0.2 mm 3 mps 748 mmHg 89%
23:00 +20°C° 0.2 mm 3 mps 748 mmHg 90%

27 Junio, Domingo

Tiempo Temperatura Precipitaciones Viento Presión Humedad
00:00 +19°C° 0.4 mm 3 mps 748 mmHg 91%
01:00 +19°C° 0.4 mm 3 mps 748 mmHg 91%
02:00 +19°C° 0.4 mm 3 mps 749 mmHg 92%
03:00 +18°C° 0.1 mm 3 mps 748 mmHg 92%
04:00 +18°C° 0.1 mm 3 mps 748 mmHg 92%
05:00 +18°C° 0.1 mm 3 mps 748 mmHg 92%
06:00 +18°C° 0 mm 3 mps 749 mmHg 90%
07:00 +19°C° 0 mm 3 mps 749 mmHg 88%
08:00 +19°C° 0 mm 3 mps 749 mmHg 86%
09:00 +20°C° 0 mm 3 mps 749 mmHg 84%
10:00 +20°C° 0 mm 3 mps 749 mmHg 82%
11:00 +20°C° 0 mm 3 mps 750 mmHg 80%
12:00 +20°C° 0.3 mm 3 mps 750 mmHg 80%
13:00 +20°C° 0.3 mm 3 mps 750 mmHg 80%
14:00 +20°C° 0.3 mm 3 mps 750 mmHg 81%
15:00 +20°C° 0.2 mm 2 mps 750 mmHg 82%
16:00 +20°C° 0.2 mm 2 mps 750 mmHg 83%
17:00 +20°C° 0.2 mm 2 mps 750 mmHg 83%
18:00 +19°C° 0 mm 2 mps 749 mmHg 84%
19:00 +19°C° 0 mm 2 mps 749 mmHg 84%
20:00 +19°C° 0 mm 3 mps 749 mmHg 84%
21:00 +19°C° 0 mm 3 mps 749 mmHg 85%
22:00 +18°C° 0 mm 3 mps 749 mmHg 87%
23:00 +18°C° 0 mm 3 mps 749 mmHg 88%
Mostrar más

Necesitamos Su Consentimiento

Meteoprog y nuestros Proveedores de Servicios pueden almacenar y acceder a sus datos personales como cookies, identificadores de dispositivo u otras tecnologías similares de su dispositivo y procesar dichos datos para personalizar contenido y anuncios, además de ofrecer funciones de redes sociales y analizar el tráfico.

  • Almacenar y/o acceder a información en su dispositivo

    Se puede almacenar o acceder a cookies, identificadores de dispositivo u otra información de su dispositivo para los fines anteriormente indicados.

  • Anuncios y contenido personalizados, medición de anuncios y contenido, percepciones del público, y desarrollo de productos

    Los anuncios y el contenido pueden personalizarse en base a su perfil. Se pueden añadir más datos para personalizar mejor los anuncios y contenidos. Se puede medir el rendimiento de los anuncios y contenidos. Se puede obtener la percepción sobre el público que ha visto los anuncios y contenidos. Dichos datos pueden usarse para desarrollar o mejorar la experiencia del usuario, sistemas y software.

Al hacer clic en ‘Estoy De Acuerdo’ usted permitirá el uso de las cookies, identificadores de dispositivo, balizas web u otras tecnologías similares indicadas. Su configuración puede cambiarse desde el navegador de su dispositivo.

Para ciertos fines, los intereses legítimos pueden ser considerados por encima del consentimiento. Puede leer más sobre ello en nuestra Política de Privacidad y Cookies.